owner,sensor,date,latitude,longitude,vertical_datum,direction_of_sea_water_velocity,sea_water_speed,upward_sea_water_velocity,qcFlag 
TABS,ioos:station:wmo:42046:1,2008-07-01T00:00:00Z,27.8903,-94.0367,2.0,199.9973222,40.58711618,-99999.0,'11111222,11111222,99999999' 
TABS,ioos:station:wmo:42046:1,2008-07-01T00:30:00Z,27.8903,-94.0367,2.0,196.7305641,39.98254869,-99999.0,'11111222,11111222,99999999' 
TABS,ioos:station:wmo:42046:1,2008-07-01T01:00:00Z,27.8903,-94.0367,2.0,211.1124375,38.91830546,-99999.0,'11111222,11111222,99999999' 
TABS,ioos:station:wmo:42046:1,2008-07-01T01:30:00Z,27.8903,-94.0367,2.0,218.800303,32.4124004,-99999.0,'11111222,11111222,99999999' 
TABS,ioos:station:wmo:42046:1,2008-07-01T02:00:00Z,27.8903,-94.0367,2.0,222.8922398,30.76581219,-99999.0,'11111222,11111222,99999999' 
TABS,ioos:station:wmo:42046:1,2008-07-01T02:30:00Z,27.8903,-94.0367,2.0,230.3495607,29.72899258,-99999.0,'11111222,11111222,99999999' 
TABS,ioos:station:wmo:42046:1,2008-07-01T03:00:00Z,27.8903,-94.0367,2.0,232.1199733,32.00297017,-99999.0,'11111222,11111222,99999999' 
TABS,ioos:station:wmo:42046:1,2008-07-01T03:30:00Z,27.8903,-94.0367,2.0,231.7055732,30.09529697,-99999.0,'11111222,11111222,99999999' 
TABS,ioos:station:wmo:42046:1,2008-07-01T04:00:00Z,27.8903,-94.0367,2.0,247.2940289,19.53386802,-99999.0,'11111222,11111222,99999999' 
TABS,ioos:station:wmo:42046:1,2008-07-01T04:30:00Z,27.8903,-94.0367,2.0,265.0129674,13.23007559,-99999.0,'11111222,11111222,99999999' 
TABS,ioos:station:wmo:42046:1,2008-07-01T05:00:00Z,27.8903,-94.0367,2.0,248.4586535,14.70722272,-99999.0,'11111222,11111222,99999999' 
TABS,ioos:station:wmo:42046:1,2008-07-01T05:30:00Z,27.8903,-94.0367,2.0,257.5209476,11.15348376,-99999.0,'11111222,11111222,99999999' 
TABS,ioos:station:wmo:42046:1,2008-07-01T06:00:00Z,27.8903,-94.0367,2.0,263.1309039,10.53561579,-99999.0,'11111222,11111222,99999999' 
TABS,ioos:station:wmo:42046:1,2008-07-01T06:30:00Z,27.8903,-94.0367,2.0,278.4789531,9.766739476,-99999.0,'11133222,11111222,99999999' 
TABS,ioos:station:wmo:42046:1,2008-07-01T07:00:00Z,27.8903,-94.0367,2.0,266.7012372,9.3855474,-99999.0,'11133222,11111222,99999999' 
TABS,ioos:station:wmo:42046:1,2008-07-01T07:30:00Z,27.8903,-94.0367,2.0,277.9683909,6.997556716,-99999.0,'11133222,11111222,99999999' 
TABS,ioos:station:wmo:42046:1,2008-07-01T08:00:00Z,27.8903,-94.0367,2.0,276.5161061,3.965614706,-99999.0,'11133222,11111222,99999999' 
TABS,ioos:station:wmo:42046:1,2008-07-01T08:30:00Z,27.8903,-94.0367,2.0,317.8274337,1.146908889,-99999.0,'11133222,11111222,99999999' 
TABS,ioos:station:wmo:42046:1,2008-07-01T09:00:00Z,27.8903,-94.0367,2.0,69.10228337,2.943637206,-99999.0,'11133222,11111222,99999999' 
TABS,ioos:station:wmo:42046:1,2008-07-01T09:30:00Z,27.8903,-94.0367,2.0,94.58303771,5.006006392,-99999.0,'11133222,11111222,99999999' 
TABS,ioos:station:wmo:42046:1,2008-07-01T10:00:00Z,27.8903,-94.0367,2.0,89.25053576,6.880588638,-99999.0,'11133222,11111222,99999999' 
TABS,ioos:station:wmo:42046:1,2008-07-01T10:30:00Z,27.8903,-94.0367,2.0,100.4844856,5.990008347,-99999.0,'11133222,11111222,99999999' 
TABS,ioos:station:wmo:42046:1,2008-07-01T11:00:00Z,27.8903,-94.0367,2.0,108.9677427,6.460812642,-99999.0,'11133222,11111222,99999999' 
TABS,ioos:station:wmo:42046:1,2008-07-01T11:30:00Z,27.8903,-94.0367,2.0,124.4627832,9.047983201,-99999.0,'11133222,11111222,99999999' 
TABS,ioos:station:wmo:42046:1,2008-07-01T12:00:00Z,27.8903,-94.0367,2.0,135.5671599,9.998979948,-99999.0,'11133222,11111222,99999999' 
TABS,ioos:station:wmo:42046:1,2008-07-01T12:30:00Z,27.8903,-94.0367,2.0,136.9090427,12.73499117,-99999.0,'11111222,11111222,99999999' 
TABS,ioos:station:wmo:42046:1,2008-07-01T13:00:00Z,27.8903,-94.0367,2.0,129.3439417,10.33163104,-99999.0,'11111222,11111222,99999999' 
TABS,ioos:station:wmo:42046:1,2008-07-01T13:30:00Z,27.8903,-94.0367,2.0,120.421781,7.978471031,-99999.0,'11133222,11111222,99999999' 
TABS,ioos:station:wmo:42046:1,2008-07-01T14:00:00Z,27.8903,-94.0367,2.0,133.6174628,9.378965828,-99999.0,'11133222,11111222,99999999' 
TABS,ioos:station:wmo:42046:1,2008-07-01T14:30:00Z,27.8903,-94.0367,2.0,133.2782319,12.23847213,-99999.0,'11111222,11111222,99999999' 
TABS,ioos:station:wmo:42046:1,2008-07-01T15:00:00Z,27.8903,-94.0367,2.0,124.7234647,12.7629542,-99999.0,'11111222,11111222,99999999' 
TABS,ioos:station:wmo:42046:1,2008-07-01T15:30:00Z,27.8903,-94.0367,2.0,128.5428965,16.85118393,-99999.0,'11111222,11111222,99999999' 
TABS,ioos:station:wmo:42046:1,2008-07-01T16:00:00Z,27.8903,-94.0367,2.0,130.8876755,17.35465355,-99999.0,'11111222,11111222,99999999' 
TABS,ioos:station:wmo:42046:1,2008-07-01T16:30:00Z,27.8903,-94.0367,2.0,128.2277506,18.22911956,-99999.0,'11111222,11111222,99999999' 
TABS,ioos:station:wmo:42046:1,2008-07-01T17:00:00Z,27.8903,-94.0367,2.0,133.5290319,20.1096718,-99999.0,'11111222,11111222,99999999' 
TABS,ioos:station:wmo:42046:1,2008-07-01T17:30:00Z,27.8903,-94.0367,2.0,140.9910724,16.6656113,-99999.0,'11111222,11111222,99999999' 
TABS,ioos:station:wmo:42046:1,2008-07-01T18:00:00Z,27.8903,-94.0367,2.0,141.5235195,20.97424373,-99999.0,'11111222,11111222,99999999' 
TABS,ioos:station:wmo:42046:1,2008-07-01T18:30:00Z,27.8903,-94.0367,2.0,144.6208405,21.83139024,-99999.0,'11111222,11111222,99999999' 
TABS,ioos:station:wmo:42046:1,2008-07-01T19:00:00Z,27.8903,-94.0367,2.0,149.5404646,18.89816129,-99999.0,'11111222,11111222,99999999' 
TABS,ioos:station:wmo:42046:1,2008-07-01T19:30:00Z,27.8903,-94.0367,2.0,152.7628355,16.0158203,-99999.0,'11111222,11111222,99999999' 
TABS,ioos:station:wmo:42046:1,2008-07-01T20:00:00Z,27.8903,-94.0367,2.0,156.3804756,19.66760789,-99999.0,'11111222,11111222,99999999' 
TABS,ioos:station:wmo:42046:1,2008-07-01T20:30:00Z,27.8903,-94.0367,2.0,164.9173597,19.79178112,-99999.0,'11111222,11111222,99999999' 
TABS,ioos:station:wmo:42046:1,2008-07-01T21:00:00Z,27.8903,-94.0367,2.0,169.4452801,16.21433008,-99999.0,'11111222,11111222,99999999' 
TABS,ioos:station:wmo:42046:1,2008-07-01T21:30:00Z,27.8903,-94.0367,2.0,180.6698835,11.97081869,-99999.0,'11111222,11111222,99999999' 
TABS,ioos:station:wmo:42046:1,2008-07-01T22:00:00Z,27.8903,-94.0367,2.0,173.5253131,15.07615336,-99999.0,'11111222,11111222,99999999' 
TABS,ioos:station:wmo:42046:1,2008-07-01T22:30:00Z,27.8903,-94.0367,2.0,177.5551546,12.19109511,-99999.0,'11111222,11111222,99999999' 
TABS,ioos:station:wmo:42046:1,2008-07-01T23:00:00Z,27.8903,-94.0367,2.0,180.9942556,13.25199608,-99999.0,'11111222,11111222,99999999' 
TABS,ioos:station:wmo:42046:1,2008-07-01T23:30:00Z,27.8903,-94.0367,2.0,161.4455181,15.17896571,-99999.0,'11111222,11111222,99999999' 
TABS,ioos:station:wmo:42046:1,2008-07-02T00:00:00Z,27.8903,-94.0367,2.0,146.1754356,14.19204355,-99999.0,'11111222,11111222,99999999' 
TABS,ioos:station:wmo:42046:1,2008-07-02T00:30:00Z,27.8903,-94.0367,2.0,141.5340658,11.99265192,-99999.0,'11111222,11111222,99999999' 
TABS,ioos:station:wmo:42046:1,2008-07-02T01:00:00Z,27.8903,-94.0367,2.0,134.5625319,11.11604246,-99999.0,'11111222,11111222,99999999' 
TABS,ioos:station:wmo:42046:1,2008-07-02T01:30:00Z,27.8903,-94.0367,2.0,120.5733466,11.57985319,-99999.0,'11111222,11111222,99999999' 
TABS,ioos:station:wmo:42046:1,2008-07-02T02:00:00Z,27.8903,-94.0367,2.0,140.9643679,13.81386622,-99999.0,'11111222,11111222,99999999' 
TABS,ioos:station:wmo:42046:1,2008-07-02T02:30:00Z,27.8903,-94.0367,2.0,136.4588518,10.55345441,-99999.0,'11111222,11111222,99999999' 
TABS,ioos:station:wmo:42046:1,2008-07-02T03:00:00Z,27.8903,-94.0367,2.0,148.9322946,12.30504368,-99999.0,'11111222,11111222,99999999' 
TABS,ioos:station:wmo:42046:1,2008-07-02T03:30:00Z,27.8903,-94.0367,2.0,160.6310969,16.4934684,-99999.0,'11111222,11111222,99999999' 
TABS,ioos:station:wmo:42046:1,2008-07-02T04:00:00Z,27.8903,-94.0367,2.0,162.9327947,12.9816871,-99999.0,'11111222,11111222,99999999' 
TABS,ioos:station:wmo:42046:1,2008-07-02T04:30:00Z,27.8903,-94.0367,2.0,181.3386761,5.991635837,-99999.0,'11133222,11111222,99999999' 
TABS,ioos:station:wmo:42046:1,2008-07-02T05:00:00Z,27.8903,-94.0367,2.0,193.872474,6.798301258,-99999.0,'11133222,11111222,99999999' 
TABS,ioos:station:wmo:42046:1,2008-07-02T05:30:00Z,27.8903,-94.0367,2.0,198.0720694,4.996498774,-99999.0,'11133222,11111222,99999999' 
TABS,ioos:station:wmo:42046:1,2008-07-02T06:00:00Z,27.8903,-94.0367,2.0,198.1378293,6.103277808,-99999.0,'11133222,11111222,99999999' 
TABS,ioos:station:wmo:42046:1,2008-07-02T06:30:00Z,27.8903,-94.0367,2.0,187.2316092,5.322339711,-99999.0,'11133222,11111222,99999999' 
TABS,ioos:station:wmo:42046:1,2008-07-02T07:00:00Z,27.8903,-94.0367,2.0,199.6948024,5.608074536,-99999.0,'11133222,11111222,99999999' 
TABS,ioos:station:wmo:42046:1,2008-07-02T07:30:00Z,27.8903,-94.0367,2.0,231.1909773,3.606064337,-99999.0,'11133222,11111222,99999999' 
TABS,ioos:station:wmo:42046:1,2008-07-02T08:00:00Z,27.8903,-94.0367,2.0,181.8180883,1.890952141,-99999.0,'11133222,11111222,99999999' 
TABS,ioos:station:wmo:42046:1,2008-07-02T08:30:00Z,27.8903,-94.0367,2.0,287.1860869,1.015332458,-99999.0,'11133222,11111222,99999999' 
TABS,ioos:station:wmo:42046:1,2008-07-02T09:00:00Z,27.8903,-94.0367,2.0,340.4034618,2.027436805,-99999.0,'11133222,11111222,99999999' 
TABS,ioos:station:wmo:42046:1,2008-07-02T09:30:00Z,27.8903,-94.0367,2.0,225.2142737,1.887988347,-99999.0,'11133222,11111222,99999999' 
TABS,ioos:station:wmo:42046:1,2008-07-02T10:00:00Z,27.8903,-94.0367,2.0,103.4957017,2.313892824,-99999.0,'11133222,11111222,99999999' 
TABS,ioos:station:wmo:42046:1,2008-07-02T10:30:00Z,27.8903,-94.0367,2.0,84.45593962,4.450820149,-99999.0,'11133222,11111222,99999999' 
TABS,ioos:station:wmo:42046:1,2008-07-02T11:00:00Z,27.8903,-94.0367,2.0,115.2344004,3.6591939,-99999.0,'11133222,11111222,99999999' 
TABS,ioos:station:wmo:42046:1,2008-07-02T11:30:00Z,27.8903,-94.0367,2.0,101.0774032,6.76606237,-99999.0,'11133222,11111222,99999999' 
TABS,ioos:station:wmo:42046:1,2008-07-02T12:00:00Z,27.8903,-94.0367,2.0,91.83120859,5.632876707,-99999.0,'11133222,11111222,99999999' 
TABS,ioos:station:wmo:42046:1,2008-07-02T12:30:00Z,27.8903,-94.0367,2.0,91.93058293,4.452527372,-99999.0,'11133222,11111222,99999999' 
TABS,ioos:station:wmo:42046:1,2008-07-02T13:00:00Z,27.8903,-94.0367,2.0,86.94581348,5.818264346,-99999.0,'11133222,11111222,99999999' 
TABS,ioos:station:wmo:42046:1,2008-07-02T13:30:00Z,27.8903,-94.0367,2.0,87.02017648,7.30988372,-99999.0,'11133222,11111222,99999999' 
TABS,ioos:station:wmo:42046:1,2008-07-02T14:00:00Z,27.8903,-94.0367,2.0,73.23195747,7.175081881,-99999.0,'11133222,11111222,99999999' 
TABS,ioos:station:wmo:42046:1,2008-07-02T14:30:00Z,27.8903,-94.0367,2.0,68.78742977,7.047510199,-99999.0,'11133222,11111222,99999999' 
TABS,ioos:station:wmo:42046:1,2008-07-02T15:00:00Z,27.8903,-94.0367,2.0,65.80684759,6.807951234,-99999.0,'11133222,11111222,99999999' 
TABS,ioos:station:wmo:42046:1,2008-07-02T15:30:00Z,27.8903,-94.0367,2.0,74.52284194,5.883349386,-99999.0,'11133222,11111222,99999999' 
TABS,ioos:station:wmo:42046:1,2008-07-02T16:00:00Z,27.8903,-94.0367,2.0,72.95742265,9.110049396,-99999.0,'11133222,11111222,99999999' 
TABS,ioos:station:wmo:42046:1,2008-07-02T16:30:00Z,27.8903,-94.0367,2.0,49.03053562,10.4627721,-99999.0,'11111222,11111222,99999999' 
TABS,ioos:station:wmo:42046:1,2008-07-02T17:00:00Z,27.8903,-94.0367,2.0,58.345867,13.6625693,-99999.0,'11111222,11111222,99999999' 
TABS,ioos:station:wmo:42046:1,2008-07-02T17:30:00Z,27.8903,-94.0367,2.0,66.17083364,19.20735536,-99999.0,'11111222,11111222,99999999' 
TABS,ioos:station:wmo:42046:1,2008-07-02T18:00:00Z,27.8903,-94.0367,2.0,72.7163661,22.34916553,-99999.0,'11111222,11111222,99999999' 
TABS,ioos:station:wmo:42046:1,2008-07-02T18:30:00Z,27.8903,-94.0367,2.0,71.60853298,20.85522716,-99999.0,'11111222,11111222,99999999' 
TABS,ioos:station:wmo:42046:1,2008-07-02T19:00:00Z,27.8903,-94.0367,2.0,69.33369048,20.06088981,-99999.0,'11111222,11111222,99999999' 
TABS,ioos:station:wmo:42046:1,2008-07-02T19:30:00Z,27.8903,-94.0367,2.0,88.56464636,26.3482675,-99999.0,'11111222,11111222,99999999' 
TABS,ioos:station:wmo:42046:1,2008-07-02T20:00:00Z,27.8903,-94.0367,2.0,105.0967596,28.56588875,-99999.0,'11111222,11111222,99999999' 
TABS,ioos:station:wmo:42046:1,2008-07-02T20:30:00Z,27.8903,-94.0367,2.0,108.369871,27.85968413,-99999.0,'11111222,11111222,99999999' 
TABS,ioos:station:wmo:42046:1,2008-07-02T21:00:00Z,27.8903,-94.0367,2.0,122.0336195,30.0329236,-99999.0,'11111222,11111222,99999999' 
TABS,ioos:station:wmo:42046:1,2008-07-02T21:30:00Z,27.8903,-94.0367,2.0,125.9372912,31.82821547,-99999.0,'11111222,11111222,99999999' 
TABS,ioos:station:wmo:42046:1,2008-07-02T22:00:00Z,27.8903,-94.0367,2.0,127.0513137,30.93615522,-99999.0,'11111222,11111222,99999999' 
TABS,ioos:station:wmo:42046:1,2008-07-02T22:30:00Z,27.8903,-94.0367,2.0,128.3641124,34.20563258,-99999.0,'11111222,11111222,99999999' 
TABS,ioos:station:wmo:42046:1,2008-07-02T23:00:00Z,27.8903,-94.0367,2.0,137.9574306,30.83557199,-99999.0,'11111222,11111222,99999999' 
TABS,ioos:station:wmo:42046:1,2008-07-02T23:30:00Z,27.8903,-94.0367,2.0,138.619972,21.94996583,-99999.0,'11111222,11111222,99999999' 
TABS,ioos:station:wmo:42046:1,2008-07-03T00:00:00Z,27.8903,-94.0367,2.0,140.1053761,17.32213035,-99999.0,'11111222,11111222,99999999' 
TABS,ioos:station:wmo:42046:1,2008-07-03T00:30:00Z,27.8903,-94.0367,2.0,146.0547643,18.0695379,-99999.0,'11111222,11111222,99999999' 
TABS,ioos:station:wmo:42046:1,2008-07-03T01:00:00Z,27.8903,-94.0367,2.0,142.7235038,18.88847532,-99999.0,'11111222,11111222,99999999' 
TABS,ioos:station:wmo:42046:1,2008-07-03T01:30:00Z,27.8903,-94.0367,2.0,141.0153006,16.53125827,-99999.0,'11111222,11111222,99999999' 
TABS,ioos:station:wmo:42046:1,2008-07-03T02:00:00Z,27.8903,-94.0367,2.0,140.8277183,11.00288144,-99999.0,'11111222,11111222,99999999' 
TABS,ioos:station:wmo:42046:1,2008-07-03T02:30:00Z,27.8903,-94.0367,2.0,137.0329789,10.56375407,-99999.0,'11111222,11111222,99999999' 
TABS,ioos:station:wmo:42046:1,2008-07-03T03:00:00Z,27.8903,-94.0367,2.0,116.4921865,3.519573838,-99999.0,'11133222,11111222,99999999' 
TABS,ioos:station:wmo:42046:1,2008-07-03T03:30:00Z,27.8903,-94.0367,2.0,177.4574443,5.185103663,-99999.0,'11133222,11111222,99999999' 
TABS,ioos:station:wmo:42046:1,2008-07-03T04:00:00Z,27.8903,-94.0367,2.0,175.0260007,6.113018894,-99999.0,'11133222,11111222,99999999' 
TABS,ioos:station:wmo:42046:1,2008-07-03T04:30:00Z,27.8903,-94.0367,2.0,176.0088858,3.44836193,-99999.0,'11133222,11111222,99999999' 
TABS,ioos:station:wmo:42046:1,2008-07-03T05:00:00Z,27.8903,-94.0367,2.0,206.4954973,3.698459139,-99999.0,'11133222,11111222,99999999' 
TABS,ioos:station:wmo:42046:1,2008-07-03T05:30:00Z,27.8903,-94.0367,2.0,223.9405577,4.208004278,-99999.0,'11133222,11111222,99999999' 
TABS,ioos:station:wmo:42046:1,2008-07-03T06:00:00Z,27.8903,-94.0367,2.0,207.7820328,6.736556984,-99999.0,'11133222,11111222,99999999' 
TABS,ioos:station:wmo:42046:1,2008-07-03T06:30:00Z,27.8903,-94.0367,2.0,243.3265871,4.744944678,-99999.0,'11133222,11111222,99999999' 
TABS,ioos:station:wmo:42046:1,2008-07-03T07:00:00Z,27.8903,-94.0367,2.0,275.3801099,2.239866067,-99999.0,'11133222,11111222,99999999' 
TABS,ioos:station:wmo:42046:1,2008-07-03T07:30:00Z,27.8903,-94.0367,2.0,278.6907843,3.904830342,-99999.0,'11133222,11111222,99999999' 
TABS,ioos:station:wmo:42046:1,2008-07-03T08:00:00Z,27.8903,-94.0367,2.0,271.4402238,5.571759148,-99999.0,'11133222,11111222,99999999' 
TABS,ioos:station:wmo:42046:1,2008-07-03T08:30:00Z,27.8903,-94.0367,2.0,299.4532469,7.54513088,-99999.0,'11133222,11111222,99999999' 
TABS,ioos:station:wmo:42046:1,2008-07-03T09:00:00Z,27.8903,-94.0367,2.0,299.6502151,8.227235259,-99999.0,'11133222,11111222,99999999' 
TABS,ioos:station:wmo:42046:1,2008-07-03T09:30:00Z,27.8903,-94.0367,2.0,304.5657525,7.261873037,-99999.0,'11133222,11111222,99999999' 
TABS,ioos:station:wmo:42046:1,2008-07-03T10:00:00Z,27.8903,-94.0367,2.0,302.9276124,7.708242342,-99999.0,'11133222,11111222,99999999' 
TABS,ioos:station:wmo:42046:1,2008-07-03T10:30:00Z,27.8903,-94.0367,2.0,290.8916508,9.001788711,-99999.0,'11133222,11111222,99999999' 
TABS,ioos:station:wmo:42046:1,2008-07-03T11:00:00Z,27.8903,-94.0367,2.0,306.2580915,7.862448728,-99999.0,'11133222,11111222,99999999' 
TABS,ioos:station:wmo:42046:1,2008-07-03T11:30:00Z,27.8903,-94.0367,2.0,304.9509906,10.21172855,-99999.0,'11111222,11111222,99999999' 
TABS,ioos:station:wmo:42046:1,2008-07-03T12:00:00Z,27.8903,-94.0367,2.0,329.3464156,11.41511279,-99999.0,'11111222,11111222,99999999' 
TABS,ioos:station:wmo:42046:1,2008-07-03T12:30:00Z,27.8903,-94.0367,2.0,332.1676886,8.288896187,-99999.0,'11133222,11111222,99999999' 
TABS,ioos:station:wmo:42046:1,2008-07-03T13:00:00Z,27.8903,-94.0367,2.0,340.2356639,16.35337886,-99999.0,'11111222,11111222,99999999' 
TABS,ioos:station:wmo:42046:1,2008-07-03T13:30:00Z,27.8903,-94.0367,2.0,358.6410202,17.28486332,-99999.0,'11111222,11111222,99999999' 
TABS,ioos:station:wmo:42046:1,2008-07-03T14:00:00Z,27.8903,-94.0367,2.0,9.063861534,17.01241899,-99999.0,'11111222,11111222,99999999' 
TABS,ioos:station:wmo:42046:1,2008-07-03T14:30:00Z,27.8903,-94.0367,2.0,17.86283909,16.46363872,-99999.0,'11111222,11111222,99999999' 
TABS,ioos:station:wmo:42046:1,2008-07-03T15:00:00Z,27.8903,-94.0367,2.0,21.91981888,15.29575758,-99999.0,'11111222,11111222,99999999' 
TABS,ioos:station:wmo:42046:1,2008-07-03T15:30:00Z,27.8903,-94.0367,2.0,20.9941754,16.07724168,-99999.0,'11111222,11111222,99999999' 
TABS,ioos:station:wmo:42046:1,2008-07-03T16:00:00Z,27.8903,-94.0367,2.0,27.610897,13.72279855,-99999.0,'11111222,11111222,99999999' 
TABS,ioos:station:wmo:42046:1,2008-07-03T16:30:00Z,27.8903,-94.0367,2.0,32.37429788,16.30416511,-99999.0,'11111222,11111222,99999999' 
TABS,ioos:station:wmo:42046:1,2008-07-03T17:00:00Z,27.8903,-94.0367,2.0,49.25837008,15.04634175,-99999.0,'11111222,11111222,99999999' 
TABS,ioos:station:wmo:42046:1,2008-07-03T17:30:00Z,27.8903,-94.0367,2.0,44.06538497,20.80585014,-99999.0,'11111222,11111222,99999999' 
TABS,ioos:station:wmo:42046:1,2008-07-03T18:00:00Z,27.8903,-94.0367,2.0,51.39393309,25.01748588,-99999.0,'11111222,11111222,99999999' 
TABS,ioos:station:wmo:42046:1,2008-07-03T18:30:00Z,27.8903,-94.0367,2.0,56.93567986,21.3350416,-99999.0,'11111222,11111222,99999999' 
TABS,ioos:station:wmo:42046:1,2008-07-03T19:00:00Z,27.8903,-94.0367,2.0,62.65483427,22.66241382,-99999.0,'11111222,11111222,99999999' 
TABS,ioos:station:wmo:42046:1,2008-07-03T19:30:00Z,27.8903,-94.0367,2.0,58.86419776,29.68653904,-99999.0,'11111222,11111222,99999999' 
TABS,ioos:station:wmo:42046:1,2008-07-03T20:00:00Z,27.8903,-94.0367,2.0,58.13854697,26.59755064,-99999.0,'11111222,11111222,99999999' 
TABS,ioos:station:wmo:42046:1,2008-07-03T20:30:00Z,27.8903,-94.0367,2.0,61.220261,25.11191351,-99999.0,'11111222,11111222,99999999' 
TABS,ioos:station:wmo:42046:1,2008-07-03T21:00:00Z,27.8903,-94.0367,2.0,73.351219,23.94375075,-99999.0,'11111222,11111222,99999999' 
TABS,ioos:station:wmo:42046:1,2008-07-03T21:30:00Z,27.8903,-94.0367,2.0,65.72316352,29.23530229,-99999.0,'11111222,11111222,99999999' 
TABS,ioos:station:wmo:42046:1,2008-07-03T22:00:00Z,27.8903,-94.0367,2.0,65.56999705,23.88884468,-99999.0,'11111222,11111222,99999999' 
TABS,ioos:station:wmo:42046:1,2008-07-03T22:30:00Z,27.8903,-94.0367,2.0,81.58752948,27.54638633,-99999.0,'11111222,11111222,99999999' 
TABS,ioos:station:wmo:42046:1,2008-07-03T23:00:00Z,27.8903,-94.0367,2.0,77.18011104,24.33665754,-99999.0,'11111222,11111222,99999999' 
TABS,ioos:station:wmo:42046:1,2008-07-03T23:30:00Z,27.8903,-94.0367,2.0,84.65193204,25.32022314,-99999.0,'11111222,11111222,99999999' 
TABS,ioos:station:wmo:42046:1,2008-07-04T00:00:00Z,27.8903,-94.0367,2.0,82.23810924,23.76776388,-99999.0,'11111222,11111222,99999999' 
TABS,ioos:station:wmo:42046:1,2008-07-04T00:30:00Z,27.8903,-94.0367,2.0,96.17363411,26.59423246,-99999.0,'11111222,11111222,99999999' 
TABS,ioos:station:wmo:42046:1,2008-07-04T01:00:00Z,27.8903,-94.0367,2.0,106.6477581,26.66781018,-99999.0,'11111222,11111222,99999999' 
TABS,ioos:station:wmo:42046:1,2008-07-04T01:30:00Z,27.8903,-94.0367,2.0,108.5086452,22.11382599,-99999.0,'11111222,11111222,99999999' 
TABS,ioos:station:wmo:42046:1,2008-07-04T02:00:00Z,27.8903,-94.0367,2.0,116.4592777,21.81511632,-99999.0,'11111222,11111222,99999999' 
TABS,ioos:station:wmo:42046:1,2008-07-04T02:30:00Z,27.8903,-94.0367,2.0,115.2120733,22.16113941,-99999.0,'11111222,11111222,99999999' 
TABS,ioos:station:wmo:42046:1,2008-07-04T03:00:00Z,27.8903,-94.0367,2.0,121.9154761,20.95830384,-99999.0,'11111222,11111222,99999999' 
TABS,ioos:station:wmo:42046:1,2008-07-04T03:30:00Z,27.8903,-94.0367,2.0,125.9613816,19.17441003,-99999.0,'11111222,11111222,99999999' 
TABS,ioos:station:wmo:42046:1,2008-07-04T04:00:00Z,27.8903,-94.0367,2.0,139.2890381,21.556419,-99999.0,'11111222,11111222,99999999' 
TABS,ioos:station:wmo:42046:1,2008-07-04T04:30:00Z,27.8903,-94.0367,2.0,127.3511263,12.85645363,-99999.0,'11111222,11111222,99999999' 
TABS,ioos:station:wmo:42046:1,2008-07-04T05:00:00Z,27.8903,-94.0367,2.0,155.1189428,13.9993607,-99999.0,'11111222,11111222,99999999' 
TABS,ioos:station:wmo:42046:1,2008-07-04T05:30:00Z,27.8903,-94.0367,2.0,157.6475283,11.20166059,-99999.0,'11111222,11111222,99999999' 
TABS,ioos:station:wmo:42046:1,2008-07-04T06:00:00Z,27.8903,-94.0367,2.0,158.4336049,12.21514224,-99999.0,'11111222,11111222,99999999' 
TABS,ioos:station:wmo:42046:1,2008-07-04T06:30:00Z,27.8903,-94.0367,2.0,153.4725074,13.59082411,-99999.0,'11111222,11111222,99999999' 
TABS,ioos:station:wmo:42046:1,2008-07-04T07:00:00Z,27.8903,-94.0367,2.0,170.1937197,11.50813625,-99999.0,'11111222,11111222,99999999' 
TABS,ioos:station:wmo:42046:1,2008-07-04T07:30:00Z,27.8903,-94.0367,2.0,181.0424113,10.44172878,-99999.0,'11111222,11111222,99999999' 
TABS,ioos:station:wmo:42046:1,2008-07-04T08:00:00Z,27.8903,-94.0367,2.0,195.451764,8.932888671,-99999.0,'11133222,11111222,99999999' 
TABS,ioos:station:wmo:42046:1,2008-07-04T08:30:00Z,27.8903,-94.0367,2.0,189.8216575,8.382869437,-99999.0,'11133222,11111222,99999999' 
TABS,ioos:station:wmo:42046:1,2008-07-04T09:00:00Z,27.8903,-94.0367,2.0,199.2457763,9.829343823,-99999.0,'11133222,11111222,99999999' 
TABS,ioos:station:wmo:42046:1,2008-07-04T09:30:00Z,27.8903,-94.0367,2.0,206.5647786,5.590169944,-99999.0,'11133222,11111222,99999999' 
TABS,ioos:station:wmo:42046:1,2008-07-04T10:00:00Z,27.8903,-94.0367,2.0,245.4136944,6.345273832,-99999.0,'11133222,11111222,99999999' 
TABS,ioos:station:wmo:42046:1,2008-07-04T10:30:00Z,27.8903,-94.0367,2.0,244.3368091,5.680316893,-99999.0,'11133222,11111222,99999999' 
TABS,ioos:station:wmo:42046:1,2008-07-04T11:00:00Z,27.8903,-94.0367,2.0,251.5269043,4.797176253,-99999.0,'11133222,11111222,99999999' 
TABS,ioos:station:wmo:42046:1,2008-07-04T11:30:00Z,27.8903,-94.0367,2.0,251.3088031,9.205482062,-99999.0,'11133222,11111222,99999999' 
TABS,ioos:station:wmo:42046:1,2008-07-04T12:00:00Z,27.8903,-94.0367,2.0,269.7964039,11.28007092,-99999.0,'11111222,11111222,99999999' 
TABS,ioos:station:wmo:42046:1,2008-07-04T12:30:00Z,27.8903,-94.0367,2.0,289.5602018,13.53083146,-99999.0,'11111222,11111222,99999999' 
TABS,ioos:station:wmo:42046:1,2008-07-04T13:00:00Z,27.8903,-94.0367,2.0,303.4798463,14.3390969,-99999.0,'11111222,11111222,99999999' 
TABS,ioos:station:wmo:42046:1,2008-07-04T13:30:00Z,27.8903,-94.0367,2.0,305.6051939,17.84634977,-99999.0,'11111222,11111222,99999999' 
TABS,ioos:station:wmo:42046:1,2008-07-04T14:00:00Z,27.8903,-94.0367,2.0,312.1841591,21.87601883,-99999.0,'11111222,11111222,99999999' 
TABS,ioos:station:wmo:42046:1,2008-07-04T14:30:00Z,27.8903,-94.0367,2.0,318.8875063,22.11260274,-99999.0,'11111222,11111222,99999999' 
TABS,ioos:station:wmo:42046:1,2008-07-04T15:00:00Z,27.8903,-94.0367,2.0,324.8622989,22.83042926,-99999.0,'11111222,11111222,99999999' 
TABS,ioos:station:wmo:42046:1,2008-07-04T15:30:00Z,27.8903,-94.0367,2.0,334.4052741,26.94400861,-99999.0,'11111222,11111222,99999999' 
TABS,ioos:station:wmo:42046:1,2008-07-04T16:00:00Z,27.8903,-94.0367,2.0,336.3034181,28.68891424,-99999.0,'11111222,11111222,99999999' 